TimeEST,TemperatureF,Dew PointF,Humidity,Sea Level PressureIn,VisibilityMPH,Wind Direction,Wind SpeedMPH,Gust SpeedMPH,PrecipitationIn,Events,Conditions,WindDirDegrees,DateUTC
12:53 AM,26.1,24.1,92,30.01,6.0,South,3.5,-,N/A,,Clear,180,2013-12-04 05:53:00
1:53 AM,26.1,23.0,88,30.03,5.0,SSE,3.5,-,N/A,,Clear,150,2013-12-04 06:53:00
2:53 AM,25.0,21.9,88,30.03,6.0,SSE,3.5,-,N/A,,Clear,160,2013-12-04 07:53:00
3:53 AM,25.0,21.9,88,30.03,7.0,Calm,Calm,-,N/A,,Clear,0,2013-12-04 08:53:00
4:53 AM,25.0,23.0,92,30.04,6.0,Calm,Calm,-,N/A,,Clear,0,2013-12-04 09:53:00
5:53 AM,25.0,23.0,92,30.07,7.0,Calm,Calm,-,N/A,,Clear,0,2013-12-04 10:53:00
6:53 AM,27.0,23.0,85,30.10,8.0,South,3.5,-,N/A,,Clear,190,2013-12-04 11:53:00
7:53 AM,26.1,24.1,92,30.12,5.0,Calm,Calm,-,N/A,,Clear,0,2013-12-04 12:53:00
7:54 AM,26.1,24.1,92,30.10,10.0,Calm,Calm,-,N/A,,Clear,0,2013-12-04 12:54:00
8:53 AM,30.0,27.0,88,30.13,10.0,Calm,Calm,-,N/A,,Clear,0,2013-12-04 13:53:00
9:53 AM,36.0,28.9,76,30.13,10.0,NNW,4.6,-,N/A,,Mostly Cloudy,330,2013-12-04 14:53:00
10:53 AM,37.9,28.9,70,30.13,10.0,North,4.6,-,N/A,,Clear,350,2013-12-04 15:53:00
11:53 AM,41.0,28.0,60,30.12,10.0,Calm,Calm,-,N/A,,Partly Cloudy,0,2013-12-04 16:53:00
12:53 PM,43.0,28.0,56,30.11,10.0,Calm,Calm,-,N/A,,Clear,0,2013-12-04 17:53:00
1:53 PM,45.0,28.0,52,30.10,10.0,South,3.5,-,N/A,,Clear,180,2013-12-04 18:53:00
2:53 PM,46.0,28.9,51,30.12,10.0,SW,3.5,-,N/A,,Clear,230,2013-12-04 19:53:00
3:53 PM,44.1,28.0,53,30.13,10.0,Calm,Calm,-,N/A,,Clear,0,2013-12-04 20:53:00
4:53 PM,37.9,28.0,68,30.14,10.0,Calm,Calm,-,N/A,,Clear,0,2013-12-04 21:53:00
5:53 PM,35.1,28.0,76,30.17,10.0,Calm,Calm,-,N/A,,Clear,0,2013-12-04 22:53:00
6:53 PM,30.9,26.1,82,30.17,10.0,North,4.6,-,N/A,,Clear,360,2013-12-04 23:53:00
7:53 PM,30.0,26.1,85,30.18,10.0,North,3.5,-,N/A,,Clear,360,2013-12-05 00:53:00
8:53 PM,32.0,27.0,82,30.19,9.0,Calm,Calm,-,N/A,,Clear,0,2013-12-05 01:53:00
9:53 PM,28.9,26.1,89,30.20,8.0,Calm,Calm,-,N/A,,Clear,0,2013-12-05 02:53:00
10:53 PM,30.9,27.0,85,30.20,7.0,Calm,Calm,-,N/A,,Overcast,0,2013-12-05 03:53:00
11:53 PM,33.1,28.0,82,30.20,8.0,Calm,Calm,-,N/A,,Overcast,0,2013-12-05 04:53:00